EDT,Max TemperatureF,Mean TemperatureF,Min TemperatureF,Max Dew PointF,MeanDew PointF,Min DewpointF,Max Humidity, Mean Humidity, Min Humidity, Max Sea Level PressureIn, Mean Sea Level PressureIn, Min Sea Level PressureIn, Max VisibilityMiles, Mean VisibilityMiles, Min VisibilityMiles, Max Wind SpeedMPH, Mean Wind SpeedMPH, Max Gust SpeedMPH,PrecipitationIn, CloudCover, Events, WindDirDegrees
2012-10-1,89,83,76,77,74,72,91,82,59,29.85,29.80,29.77,10,9,4,14,6,20,0.35,4,Rain,164
2012-10-2,87,81,75,78,74,72,100,90,65,30.05,29.91,29.83,10,7,1,17,6,26,2.36,5,Rain-Thunderstorm,170
2012-10-3,92,84,76,77,74,71,100,84,59,30.17,30.08,30.03,10,10,5,14,6,17,0.01,3,Rain-Thunderstorm,108
2012-10-4,92,84,75,77,74,72,97,83,56,30.15,30.12,30.08,10,9,1,18,6,23,0.16,2,Rain,94
2012-10-5,92,84,75,77,74,71,94,84,56,30.10,30.03,29.92,10,8,0,18,6,22,0.00,5,Fog-Thunderstorm,62
2012-10-6,89,82,75,75,72,69,94,79,55,29.99,29.93,29.85,10,10,10,17,3,23,0.09,2,Rain-Thunderstorm,70
2012-10-7,90,83,75,75,73,71,94,86,56,29.99,29.94,29.89,10,8,0,21,5,29,0.86,4,Fog-Rain-Thunderstorm,87
2012-10-8,89,82,74,76,73,72,94,84,59,30.03,29.97,29.92,10,8,1,15,4,21,0.88,3,Rain,84
2012-10-9,91,82,73,75,72,68,94,77,47,30.04,30.00,29.96,10,10,7,15,5,18,0.06,2,Rain,39
2012-10-10,89,82,74,74,71,68,94,76,53,30.09,30.05,30.00,10,10,10,14,7,17,0.00,2,,49
2012-10-11,87,78,69,69,66,64,90,70,48,30.14,30.10,30.07,10,10,10,15,9,21,0.00,0,,59
2012-10-12,86,78,69,67,65,61,90,69,44,30.15,30.11,30.07,10,10,10,18,10,24,0.00,1,,40
2012-10-13,88,79,70,70,66,63,87,69,48,30.14,30.10,30.04,10,10,10,20,11,26,T,1,,49
2012-10-14,88,80,71,73,70,68,90,74,55,30.06,30.01,29.96,10,10,10,17,9,23,0.00,4,,59
2012-10-15,90,82,74,74,73,70,94,82,55,29.96,29.87,29.81,10,10,9,21,5,24,0.03,3,Rain,45
2012-10-16,89,81,73,73,70,66,94,73,50,29.88,29.83,29.78,10,10,10,13,5,18,0.00,0,,333
2012-10-17,85,79,72,75,70,67,94,80,58,29.89,29.85,29.82,10,10,9,12,5,15,0.00,3,,176
2012-10-18,87,80,72,75,72,70,94,82,65,29.89,29.85,29.81,10,10,10,10,4,14,0.01,4,,182
2012-10-19,88,82,75,75,73,71,94,83,59,29.90,29.86,29.82,10,9,3,12,4,17,0.09,3,Rain,359
2012-10-20,86,78,70,73,68,58,93,71,48,29.97,29.90,29.86,10,10,10,17,5,22,0.00,1,,4
2012-10-21,85,74,63,61,56,52,68,56,34,30.03,29.99,29.94,10,10,10,14,8,22,0.00,0,,50
2012-10-22,87,77,66,64,63,60,87,65,42,30.05,30.00,29.94,10,10,10,18,9,25,0.00,1,,62
2012-10-23,87,77,67,68,65,63,87,70,48,30.00,29.97,29.91,10,10,10,21,10,29,0.00,2,,57
2012-10-24,89,81,72,71,67,63,93,72,48,29.98,29.92,29.86,10,10,10,22,10,28,T,4,,52
2012-10-25,83,78,73,72,70,68,93,79,65,29.87,29.80,29.75,10,10,10,21,11,29,0.03,2,,37
2012-10-26,87,80,73,70,66,61,82,70,42,29.75,29.67,29.60,10,10,10,29,14,36,T,4,Rain,1
2012-10-27,85,78,71,64,62,59,73,61,43,29.74,29.65,29.60,10,10,10,28,15,37,0.00,0,,317
2012-10-28,79,74,68,66,61,54,84,65,45,29.81,29.75,29.72,10,10,10,23,14,32,0.00,4,,312
2012-10-29,72,65,58,55,49,44,80,56,40,29.91,29.85,29.80,10,10,10,23,12,31,0.00,1,,327
2012-10-30,71,62,53,51,47,41,67,55,44,30.00,29.93,29.85,10,10,10,25,9,33,0.00,1,,329
2012-10-31,76,66,56,56,53,51,86,69,46,30.08,30.03,30.00,10,10,10,13,3,18,0.00,1,,314